FALCON 9 DEB (47609 NORAD) Tracking and Keplerian Element Data
This shows tracking and keplerian element data for the satellite.
Feedback or suggestion? Click here.
Element | Value |
Catalog | 47609 |
Name | FALCON 9 DEB |
Epoch Orbit | 463 |
Epoch Day | 63.99687506 |
Epoch Year | 2021 |
RAAN | 336.0604 |
Inclination | 53.0393 |
Eccentricity | 0.000737 |
Argument of Perigee | 284.9895 |
Mean Anonmoly | 75.0336 |
Mean Motion | 16.40517473 |
Decay Rate | 0.06378873 |
L1 | 1 47609U 21009BP 21063.99687506 .06378873 12401-4 43128-3 0 9995 |
L2 | 2 47609 53.0393 336.0604 0007370 284.9895 75.0336 16.40517473 4630 |
Live tracking and technical data element details for FALCON 9 DEB (NORAD 47609). FALCON 9 DEB can be tracked NOW for your location showing map with azimuth and elevation plus other details from your city location.
Track the satellite on the map from your city or location and see movement details for azimuth, elevation, latitude, longitude, range, height, and movement on the map or in text.
IsCatalogInMostPopularTable: catalog: 47609, numindb: 18
Update: records affected: 1
GetName: 47609 FALCON 9 DEB
Hit Count: updated at: Sat, 10 Apr 2021 19:23:20 GMT